SCP
0 0 0 0 0 0 0 0 0 0 0 0 0 0 0 0 0 0 0 0 0 0 0 0 0 0 0 0 0 0 0 0 0 0 0 0 0 0 0 0 0 0 0
0 0 0 0 0 0 0 0 0 0 0 0 0 0 0 0 0 0 0 0 0 0 0 0 0 0 0 0 0 0 0 0 0 0 0 0 0 0 0 0 0 0 0
0 0 0 0 0 0 0 0 0 0 0 0 0 0 0 0 0 0 0 0 0 0 0 0 0 0 0 0 0 0 0 0 0 0 0 0 0 0 0 0 0 0 0
0 0 0 0 0 0 0 0 0 0 0 0 0 0 0 0 0 0 0 0 0 0 0 0 0 0 0 0 0 0 0 0 0 0 0 0 0 0 -0 -0 0 -0 0
0 0 0 0 0 0 0 0 0 0 0 0 0 0 0 0 0 0 0 0 0 0 0 0 0 0 0 0 0 0 0 0 0 0 0 0 0 0 0 -0 0 0 0
0 0 0 0 0 0 0 0 0 0 0 0 0 0 0 0 0 0 0 0 0 0 0 0 0 0 0 0 0 0 0 0 0 0 0 0 0 0 0 0 0 0 -0
0 0 0 0 0 0 0 0 0 0 0 0 0 -0 -0 -0 0 0 0 0 0 0 0 0 0 0 0 0 0 0 0 0 0 0 0 0 0 0 0 0 0 0 0
0 0 0 0 0 -0 -0 -0 -0 -0 -0 -0 -0 -0 -0 -0 -0 -0 0 0 0 0 0 0 0 0 0 0 0 0 0 0 0 0 0 0 0 0 0 0 0 0 0
0 0 -0 0 -0 -0 -0 -0 -0 -0 -0 -0 -0 -0 -0 -0 -0 -0 0 0 0 0 0 0 0 0 0 0 0 0 0 0 0 0 0 0 0 0 0 0 0 0 0
-0 -0 -0 0 0 0 -0 0 0 0 -0 0 -0 -0 -0 -0 -0 -0 0 0 0 0 0 0 0 0 0 0 0 0 0 0 0 0 0 0 0 0 0 0 0 0 0
-0 -0 -0 -0 0 -0 -0 0 0 0 0 0 -0 -0 0 0 0 -0 0 0 0 0 0 0 0 0 0 0 0 0 0 0 0 0 0 0 0 0 0 0 0 0 0
-0 0 -0 -0 0 -0 0 -0 -0 0 0 0 0 0 0 0 0 0 0 0 0 0 0 0 0 0 0 0 0 0 0 0 0 0 0 0 0 0 0 0 0 0 0
-0 -0 -0 -0 -0 -0 -0 0 -0 0 0 0 0 0 0 0 0 0 0 0 0 0 0 0 0 0 0 0 0 0 0 0 0 0 0 0 0 0 0 0 0 0 0
0 0 -0 0 -0 -0 0 0 0 0 0 -0 0 0 0 0 0 0 0 0 0 0 0 0 0 0 0 0 0 0 0 0 0 0 0 0 0 0 0 0 0 0 0
0 0 0 0 0 0 0 0 0 0 0 0 -0 -0 0 0 0 0 0 0 0 0 0 0 0 0 0 0 0 0 0 0 0 0 0 0 0 0 0 0 0 0 0
0 0 0 0 -0 -0 -0 0 0 -0 -0 -0 -0 0 0 0 0 0 0 0 0 0 0 0 0 0 0 0 0 0 0 0 0 0 0 0 0 0 0 0 0 0 -0
0 0 -0 -0 -0 0 0 0 0 -0 -0 0 0 0 0 0 0 0 0 0 0 0 0 0 0 0 0 0 0 0 0 0 0 0 0 0 0 0 0 0 0 0 -0
0 0 0 -0 0 0 0 0 0 0 -0 0 0 0 0 0 0 0 0 0 0 0 0 0 0 0 0 0 0 0 0 0 0 0 0 0 0 0 0 0 0 -0 -0
0 0 0 0 0 0 0 0 0 0 0 0 0 0 0 0 0 0 0 0 0 0 0 0 0 0 0 0 0 0 0 0 0 0 0 0 0 0 0 0 0 -0 -0
0 0 0 0 0 0 0 0 0 0 0 0 0 0 0 0 0 0 0 0 0 0 0 0 0 0 0 0 0 0 0 0 0 0 0 0 0 0 0 0 0 -0 -0
0 0 0 0 0 0 0 0 0 0 0 0 0 0 0 0 0 0 0 0 0 0 0 0 0 0 0 0 0 0 0 0 0 0 0 0 0 0 0 0 -0 -0 -0
0 0 0 0 0 0 0 0 0 0 0 0 0 0 0 0 0 0 0 0 0 0 0 0 0 0 0 0 0 0 0 0 0 0 0 0 0 0 0 0 -0 -0 -0
0 0 0 0 0 0 0 0 0 0 0 0 0 0 0 0 0 0 0 0 0 0 0 0 0 0 0 0 0 0 0 0 0 0 0 0 0 0 0 -0 -0 -0 -0
0 0 0 0 0 0 0 0 0 0 0 0 0 0 0 0 0 0 0 0 0 0 0 0 0 0 0 0 0 0 0 0 0 0 0 0 0 0 0 -0 -0 -0 -0
0 0 0 0 0 0 0 0 0 0 0 0 0 0 0 0 0 0 0 0 0 0 0 0 0 0 0 0 0 0 0 0 0 0 0 0 0 0 -0 -0 -0 -0 -0
0 0 0 0 0 0 0 0 0 0 0 0 0 0 0 0 0 0 0 0 0 0 0 0 0 0 0 0 0 0 0 0 0 0 0 0 0 -0 -0 -0 -0 -0 -0
Wind_Speed_500mb
19 5 6 10 14 19 30 31 25 18 12 10 15 20 23 21 22 22 22 21 19 18 17 14 15 13 11 11 11 11 11 10 9 4 6 13 18 24 25 29 34 36 37
15 21 24 24 28 32 29 29 24 18 13 14 17 23 23 24 22 19 21 20 18 18 18 15 15 14 13 14 9 7 8 10 7 7 14 19 22 31 38 42 45 45 42
27 25 30 24 27 35 28 19 14 12 13 16 18 20 25 23 22 20 20 21 20 15 13 9 9 7 5 4 6 7 8 11 18 20 26 31 35 39 44 48 53 54 50
23 24 27 23 16 15 16 13 7 4 9 16 18 19 21 22 20 19 17 13 11 9 7 6 5 2 3 4 7 11 17 18 23 28 34 39 43 49 58 65 67 61 60
22 20 13 8 11 20 27 17 10 10 13 16 18 21 21 23 22 18 16 11 6 4 6 7 5 6 8 10 12 13 20 26 29 36 41 46 49 55 61 66 67 65 69
9 4 5 7 14 20 22 32 27 27 28 24 21 18 23 24 19 16 15 12 9 6 3 4 8 10 9 11 17 21 27 32 38 45 45 49 53 58 64 60 58 65 78
7 12 17 15 14 13 12 19 27 28 28 24 19 22 20 20 17 15 16 12 13 9 5 5 7 11 14 18 20 24 28 37 41 46 48 45 47 54 56 57 59 66 73
18 23 13 12 12 18 17 20 23 21 20 17 16 20 14 14 17 14 14 13 14 12 13 11 16 21 23 30 38 39 41 42 39 39 43 42 54 54 45 53 59 71 79
15 13 18 9 8 10 16 18 21 18 14 13 11 11 10 12 14 13 14 17 19 19 19 21 25 34 37 43 47 49 51 46 42 36 38 50 53 45 47 57 62 67 82
19 14 16 15 15 19 20 17 15 15 12 10 11 10 10 13 14 15 19 24 30 29 29 31 35 41 45 48 54 55 55 45 39 43 46 49 38 46 46 52 59 66 66
11 13 16 18 17 18 15 11 7 6 7 7 8 10 13 16 16 22 26 31 35 34 34 35 39 44 44 42 44 47 43 37 41 45 43 38 42 48 48 48 53 55 64
17 16 23 19 17 19 16 14 12 9 9 11 14 15 19 20 23 24 29 31 33 37 39 40 42 43 38 41 40 31 33 40 46 33 33 43 48 49 52 56 56 55 60
16 15 17 19 17 14 12 11 13 12 15 20 22 24 23 25 26 26 28 30 33 32 31 33 31 35 39 33 33 35 40 34 27 33 44 47 49 51 54 61 58 59 74
14 21 18 16 19 17 15 14 16 20 23 26 28 28 27 27 25 26 30 30 27 28 27 30 31 33 33 34 34 29 24 27 33 42 46 49 51 53 58 61 63 74 76
23 25 24 19 24 22 21 22 22 21 24 30 30 32 32 31 25 27 24 24 29 27 28 28 31 33 33 30 26 24 28 34 42 46 49 51 53 56 59 59 69 71 72
28 29 27 29 29 29 28 27 25 29 27 24 22 22 24 28 29 22 21 20 20 21 24 25 30 33 32 27 29 32 36 42 45 48 50 53 54 56 58 65 66 67 80
30 30 31 30 30 30 28 28 30 26 25 24 24 25 23 25 25 25 24 26 26 28 31 30 33 35 37 38 40 43 47 47 47 50 54 54 54 52 61 63 65 72 88
27 26 28 26 22 23 27 29 29 30 34 38 33 33 28 25 29 32 37 42 45 45 45 43 43 41 42 46 47 47 50 52 54 54 53 49 48 56 58 62 66 78 87
42 35 31 34 35 34 33 33 35 37 41 40 40 40 35 36 39 43 50 57 63 65 67 66 63 57 53 52 53 53 55 56 55 55 52 48 50 51 55 59 70 78 85
44 38 39 39 38 41 44 44 47 45 47 53 52 49 47 50 53 55 62 68 71 76 77 80 80 78 67 64 63 59 55 59 54 56 52 45 47 48 53 61 71 79 83
48 43 45 45 47 50 49 51 47 46 46 42 45 42 41 46 52 53 57 67 72 76 82 87 88 88 82 69 70 59 50 54 53 51 43 46 44 48 54 62 70 76 77
54 50 53 54 53 52 52 53 48 49 49 48 45 47 53 57 59 65 66 67 71 75 80 87 91 92 88 76 64 63 53 48 43 41 43 41 42 48 56 64 70 74 73
58 58 56 51 49 50 46 49 49 49 51 52 50 50 52 54 56 60 63 65 66 64 64 62 59 60 62 82 75 68 60 45 31 35 41 41 42 49 56 63 68 71 69
55 56 61 55 46 44 45 46 54 56 55 57 59 58 55 54 56 56 58 61 67 74 72 64 54 60 61 60 58 67 57 52 30 23 38 40 44 50 55 62 67 66 67
61 58 62 58 55 54 50 46 48 49 49 50 53 56 57 55 54 57 58 52 45 46 41 40 42 39 47 47 48 50 47 28 13 27 38 41 44 50 55 64 65 63 64
68 64 66 63 63 57 51 50 50 46 42 40 36 29 26 26 30 32 29 23 22 28 32 23 23 32 28 32 35 26 13 9 21 31 37 41 46 52 58 63 59 61 57
Wind_Direction_500mb
14 90 1 148 129 139 159 143 152 148 157 179 181 178 167 158 162 163 159 156 169 165 153 153 143 131 134 135 137 144 152 168 165 188 310 323 333 333 333 332 332 326 320
153 152 143 127 131 146 156 155 153 155 162 182 182 179 164 162 150 156 151 145 145 142 137 134 131 130 123 103 100 101 85 63 45 351 326 322 329 329 331 332 333 332 327
127 122 104 113 134 136 148 151 144 155 165 168 167 171 165 154 149 144 142 139 135 125 111 108 107 107 126 100 58 46 26 4 349 349 337 336 334 334 326 327 332 331 330
114 116 118 124 122 129 147 145 159 170 177 153 155 161 158 156 157 152 146 140 126 113 98 87 50 352 319 316 331 346 341 332 333 329 330 330 331 336 336 337 333 330 326
143 138 121 116 194 177 160 164 164 209 195 182 181 157 162 165 175 171 170 151 107 103 104 80 28 332 311 303 308 324 323 320 317 318 319 320 325 329 332 331 326 325 323
136 112 270 204 198 193 185 167 180 197 209 207 206 201 180 177 175 185 190 193 186 154 119 32 358 335 335 321 325 320 314 310 307 306 311 311 316 321 324 321 322 325 323
119 114 111 131 131 141 147 160 185 205 213 205 203 210 199 205 213 216 217 197 208 211 226 292 323 337 319 307 300 298 314 308 302 302 304 305 304 316 316 317 318 317 315
143 135 165 151 147 147 142 162 175 172 177 184 204 209 211 209 198 198 206 228 238 246 266 282 304 310 305 299 293 301 304 306 302 298 299 302 305 310 307 310 310 310 308
140 147 137 181 173 179 186 150 138 135 151 161 174 186 187 200 206 202 227 250 257 259 266 276 284 288 286 281 284 288 292 305 302 296 292 297 300 300 305 302 304 304 306
164 183 157 153 130 122 121 125 126 132 141 162 179 184 197 182 202 228 243 257 267 278 283 283 287 293 295 293 292 284 286 300 293 287 291 297 296 301 302 300 301 302 303
198 192 197 189 165 159 168 168 174 195 209 220 228 227 250 252 249 260 264 269 275 282 285 289 291 289 295 293 292 291 290 289 292 298 302 302 304 307 312 310 309 301 303
209 215 206 196 191 193 199 208 219 237 255 265 270 271 272 276 278 279 279 277 279 280 282 282 282 281 283 285 285 281 285 290 296 296 300 307 311 316 314 313 312 303 299
186 196 199 189 179 189 195 217 233 260 273 270 272 275 276 275 276 281 287 285 284 279 277 276 278 279 281 280 285 289 290 287 285 292 305 310 312 309 307 313 311 303 307
207 196 196 220 206 213 229 247 265 270 274 278 274 278 279 271 273 284 285 285 280 277 277 282 282 277 277 280 285 284 274 275 281 293 300 302 305 304 305 310 308 316 313
226 222 233 234 218 228 245 247 260 272 281 285 284 279 276 277 274 276 283 288 288 288 284 282 280 277 274 274 269 259 262 268 280 289 291 298 300 298 303 309 316 318 313
239 231 225 226 230 239 241 251 259 268 275 279 285 284 274 268 273 271 282 287 300 292 290 296 300 290 274 266 261 265 269 274 280 285 289 299 295 294 304 314 320 317 317
217 217 221 229 238 244 255 263 263 256 265 274 278 290 300 272 250 253 271 275 281 285 291 291 301 294 277 262 262 266 272 279 281 283 289 296 293 297 310 316 320 319 321
215 229 234 236 252 255 253 261 267 265 268 266 277 287 287 271 263 267 272 271 274 277 280 279 280 283 274 266 263 269 276 278 280 284 292 292 294 306 313 317 317 321 324
233 241 239 246 248 253 253 255 259 267 272 281 274 277 275 272 269 266 264 267 273 275 277 275 275 274 270 266 264 268 277 277 284 290 292 290 304 309 314 314 318 323 325
241 243 243 245 257 258 259 256 262 264 271 280 275 269 270 275 271 274 274 274 279 283 285 285 281 274 274 266 262 268 281 273 284 292 287 295 307 311 312 315 321 324 327
240 243 243 246 248 253 258 255 257 265 267 284 267 265 278 277 273 283 285 280 284 286 284 284 283 281 270 275 269 267 283 271 286 290 281 300 307 310 311 315 321 325 327
241 248 243 240 249 256 260 257 253 255 260 271 276 271 273 278 281 278 282 284 286 287 286 286 287 287 283 264 262 260 262 257 280 280 291 299 304 307 311 317 322 326 328
244 243 240 245 255 257 264 252 252 254 260 266 274 277 278 281 282 284 286 287 287 286 285 286 287 281 274 268 262 248 252 249 255 270 294 302 302 308 312 318 324 326 328
242 247 237 248 249 258 264 260 254 257 262 269 276 278 279 280 284 285 286 290 293 291 291 291 296 297 291 279 255 241 258 269 265 288 290 297 303 307 313 319 324 325 328
244 245 246 251 251 254 258 261 261 269 273 276 278 278 277 275 277 286 296 299 301 305 305 304 307 303 273 246 238 248 265 252 281 276 289 296 304 309 315 319 322 323 327
246 248 247 250 252 249 256 253 255 260 263 267 270 274 282 289 305 312 310 307 306 297 309 307 291 295 275 255 262 254 255 298 261 278 290 299 305 310 316 317 319 322 326
Wind_Speed_850mb
19 5 6 10 14 19 30 31 25 18 12 10 15 20 23 21 22 22 22 21 19 18 17 14 15 13 11 11 11 11 11 10 9 4 6 13 18 24 25 29 34 36 37
15 21 24 24 28 32 29 29 24 18 13 14 17 23 23 24 22 19 21 20 18 18 18 15 15 14 13 14 9 7 8 10 7 7 14 19 22 31 38 42 45 45 42
27 25 30 24 27 35 28 19 14 12 13 16 18 20 25 23 22 20 20 21 20 15 13 9 9 7 5 4 6 7 8 11 18 20 26 31 35 39 44 48 53 54 50
23 24 27 23 16 15 16 13 7 4 9 16 18 19 21 22 20 19 17 13 11 9 7 6 5 2 3 4 7 11 17 18 23 28 34 39 43 49 58 65 67 61 60
22 20 13 8 11 20 27 17 10 10 13 16 18 21 21 23 22 18 16 11 6 4 6 7 5 6 8 10 12 13 20 26 29 36 41 46 49 55 61 66 67 65 69
9 4 5 7 14 20 22 32 27 27 28 24 21 18 23 24 19 16 15 12 9 6 3 4 8 10 9 11 17 21 27 32 38 45 45 49 53 58 64 60 58 65 78
7 12 17 15 14 13 12 19 27 28 28 24 19 22 20 20 17 15 16 12 13 9 5 5 7 11 14 18 20 24 28 37 41 46 48 45 47 54 56 57 59 66 73
18 23 13 12 12 18 17 20 23 21 20 17 16 20 14 14 17 14 14 13 14 12 13 11 16 21 23 30 38 39 41 42 39 39 43 42 54 54 45 53 59 71 79
15 13 18 9 8 10 16 18 21 18 14 13 11 11 10 12 14 13 14 17 19 19 19 21 25 34 37 43 47 49 51 46 42 36 38 50 53 45 47 57 62 67 82
19 14 16 15 15 19 20 17 15 15 12 10 11 10 10 13 14 15 19 24 30 29 29 31 35 41 45 48 54 55 55 45 39 43 46 49 38 46 46 52 59 66 66
11 13 16 18 17 18 15 11 7 6 7 7 8 10 13 16 16 22 26 31 35 34 34 35 39 44 44 42 44 47 43 37 41 45 43 38 42 48 48 48 53 55 64
17 16 23 19 17 19 16 14 12 9 9 11 14 15 19 20 23 24 29 31 33 37 39 40 42 43 38 41 40 31 33 40 46 33 33 43 48 49 52 56 56 55 60
16 15 17 19 17 14 12 11 13 12 15 20 22 24 23 25 26 26 28 30 33 32 31 33 31 35 39 33 33 35 40 34 27 33 44 47 49 51 54 61 58 59 74
14 21 18 16 19 17 15 14 16 20 23 26 28 28 27 27 25 26 30 30 27 28 27 30 31 33 33 34 34 29 24 27 33 42 46 49 51 53 58 61 63 74 76
23 25 24 19 24 22 21 22 22 21 24 30 30 32 32 31 25 27 24 24 29 27 28 28 31 33 33 30 26 24 28 34 42 46 49 51 53 56 59 59 69 71 72
28 29 27 29 29 29 28 27 25 29 27 24 22 22 24 28 29 22 21 20 20 21 24 25 30 33 32 27 29 32 36 42 45 48 50 53 54 56 58 65 66 67 80
30 30 31 30 30 30 28 28 30 26 25 24 24 25 23 25 25 25 24 26 26 28 31 30 33 35 37 38 40 43 47 47 47 50 54 54 54 52 61 63 65 72 88
27 26 28 26 22 23 27 29 29 30 34 38 33 33 28 25 29 32 37 42 45 45 45 43 43 41 42 46 47 47 50 52 54 54 53 49 48 56 58 62 66 78 87
42 35 31 34 35 34 33 33 35 37 41 40 40 40 35 36 39 43 50 57 63 65 67 66 63 57 53 52 53 53 55 56 55 55 52 48 50 51 55 59 70 78 85
44 38 39 39 38 41 44 44 47 45 47 53 52 49 47 50 53 55 62 68 71 76 77 80 80 78 67 64 63 59 55 59 54 56 52 45 47 48 53 61 71 79 83
48 43 45 45 47 50 49 51 47 46 46 42 45 42 41 46 52 53 57 67 72 76 82 87 88 88 82 69 70 59 50 54 53 51 43 46 44 48 54 62 70 76 77
54 50 53 54 53 52 52 53 48 49 49 48 45 47 53 57 59 65 66 67 71 75 80 87 91 92 88 76 64 63 53 48 43 41 43 41 42 48 56 64 70 74 73
58 58 56 51 49 50 46 49 49 49 51 52 50 50 52 54 56 60 63 65 66 64 64 62 59 60 62 82 75 68 60 45 31 35 41 41 42 49 56 63 68 71 69
55 56 61 55 46 44 45 46 54 56 55 57 59 58 55 54 56 56 58 61 67 74 72 64 54 60 61 60 58 67 57 52 30 23 38 40 44 50 55 62 67 66 67
61 58 62 58 55 54 50 46 48 49 49 50 53 56 57 55 54 57 58 52 45 46 41 40 42 39 47 47 48 50 47 28 13 27 38 41 44 50 55 64 65 63 64
68 64 66 63 63 57 51 50 50 46 42 40 36 29 26 26 30 32 29 23 22 28 32 23 23 32 28 32 35 26 13 9 21 31 37 41 46 52 58 63 59 61 57
Wind_Direction_850mb
14 90 1 148 129 139 159 143 152 148 157 179 181 178 167 158 162 163 159 156 169 165 153 153 143 131 134 135 137 144 152 168 165 188 310 323 333 333 333 332 332 326 320
153 152 143 127 131 146 156 155 153 155 162 182 182 179 164 162 150 156 151 145 145 142 137 134 131 130 123 103 100 101 85 63 45 351 326 322 329 329 331 332 333 332 327
127 122 104 113 134 136 148 151 144 155 165 168 167 171 165 154 149 144 142 139 135 125 111 108 107 107 126 100 58 46 26 4 349 349 337 336 334 334 326 327 332 331 330
114 116 118 124 122 129 147 145 159 170 177 153 155 161 158 156 157 152 146 140 126 113 98 87 50 352 319 316 331 346 341 332 333 329 330 330 331 336 336 337 333 330 326
143 138 121 116 194 177 160 164 164 209 195 182 181 157 162 165 175 171 170 151 107 103 104 80 28 332 311 303 308 324 323 320 317 318 319 320 325 329 332 331 326 325 323
136 112 270 204 198 193 185 167 180 197 209 207 206 201 180 177 175 185 190 193 186 154 119 32 358 335 335 321 325 320 314 310 307 306 311 311 316 321 324 321 322 325 323
119 114 111 131 131 141 147 160 185 205 213 205 203 210 199 205 213 216 217 197 208 211 226 292 323 337 319 307 300 298 314 308 302 302 304 305 304 316 316 317 318 317 315
143 135 165 151 147 147 142 162 175 172 177 184 204 209 211 209 198 198 206 228 238 246 266 282 304 310 305 299 293 301 304 306 302 298 299 302 305 310 307 310 310 310 308
140 147 137 181 173 179 186 150 138 135 151 161 174 186 187 200 206 202 227 250 257 259 266 276 284 288 286 281 284 288 292 305 302 296 292 297 300 300 305 302 304 304 306
164 183 157 153 130 122 121 125 126 132 141 162 179 184 197 182 202 228 243 257 267 278 283 283 287 293 295 293 292 284 286 300 293 287 291 297 296 301 302 300 301 302 303
198 192 197 189 165 159 168 168 174 195 209 220 228 227 250 252 249 260 264 269 275 282 285 289 291 289 295 293 292 291 290 289 292 298 302 302 304 307 312 310 309 301 303
209 215 206 196 191 193 199 208 219 237 255 265 270 271 272 276 278 279 279 277 279 280 282 282 282 281 283 285 285 281 285 290 296 296 300 307 311 316 314 313 312 303 299
186 196 199 189 179 189 195 217 233 260 273 270 272 275 276 275 276 281 287 285 284 279 277 276 278 279 281 280 285 289 290 287 285 292 305 310 312 309 307 313 311 303 307
207 196 196 220 206 213 229 247 265 270 274 278 274 278 279 271 273 284 285 285 280 277 277 282 282 277 277 280 285 284 274 275 281 293 300 302 305 304 305 310 308 316 313
226 222 233 234 218 228 245 247 260 272 281 285 284 279 276 277 274 276 283 288 288 288 284 282 280 277 274 274 269 259 262 268 280 289 291 298 300 298 303 309 316 318 313
239 231 225 226 230 239 241 251 259 268 275 279 285 284 274 268 273 271 282 287 300 292 290 296 300 290 274 266 261 265 269 274 280 285 289 299 295 294 304 314 320 317 317
217 217 221 229 238 244 255 263 263 256 265 274 278 290 300 272 250 253 271 275 281 285 291 291 301 294 277 262 262 266 272 279 281 283 289 296 293 297 310 316 320 319 321
215 229 234 236 252 255 253 261 267 265 268 266 277 287 287 271 263 267 272 271 274 277 280 279 280 283 274 266 263 269 276 278 280 284 292 292 294 306 313 317 317 321 324
233 241 239 246 248 253 253 255 259 267 272 281 274 277 275 272 269 266 264 267 273 275 277 275 275 274 270 266 264 268 277 277 284 290 292 290 304 309 314 314 318 323 325
241 243 243 245 257 258 259 256 262 264 271 280 275 269 270 275 271 274 274 274 279 283 285 285 281 274 274 266 262 268 281 273 284 292 287 295 307 311 312 315 321 324 327
240 243 243 246 248 253 258 255 257 265 267 284 267 265 278 277 273 283 285 280 284 286 284 284 283 281 270 275 269 267 283 271 286 290 281 300 307 310 311 315 321 325 327
241 248 243 240 249 256 260 257 253 255 260 271 276 271 273 278 281 278 282 284 286 287 286 286 287 287 283 264 262 260 262 257 280 280 291 299 304 307 311 317 322 326 328
244 243 240 245 255 257 264 252 252 254 260 266 274 277 278 281 282 284 286 287 287 286 285 286 287 281 274 268 262 248 252 249 255 270 294 302 302 308 312 318 324 326 328
242 247 237 248 249 258 264 260 254 257 262 269 276 278 279 280 284 285 286 290 293 291 291 291 296 297 291 279 255 241 258 269 265 288 290 297 303 307 313 319 324 325 328
244 245 246 251 251 254 258 261 261 269 273 276 278 278 277 275 277 286 296 299 301 305 305 304 307 303 273 246 238 248 265 252 281 276 289 296 304 309 315 319 322 323 327
246 248 247 250 252 249 256 253 255 260 263 267 270 274 282 289 305 312 310 307 306 297 309 307 291 295 275 255 262 254 255 298 261 278 290 299 305 310 316 317 319 322 326